FW3683 Weather Reports


Display with metric or nautical units.
time (UTC)temp
F
wind
direction
speed
MPH
gust
MPH
rain 1hr
in
rain 24hr
in
rain mn
in
humidity
%
barometer
mb
20221210074504 48 0.0 0.0 0.00 0.07 0.02 100 1025.1
20221210073502 48 222 0.0 1.0 0.00 0.07 0.02 100 1025.1
20221210073113 47 224 0.0 0.0 0.00 0.00 0.02 97 1025.1
20221210072600 47 224 0.0 1.0 0.00 0.07 0.02 97 1024.9
20221210072059 47 225 0.0 1.0 0.00 0.07 0.02 97 1025.0
20221210071600 47 253 0.0 1.0 0.00 0.07 0.02 97 1024.9
20221210071059 47 228 0.0 1.0 0.00 0.07 0.02 97 1024.9
20221210070559 47 229 0.0 1.0 0.00 0.07 0.02 97 1024.8
20221210070110 47 230 0.0 2.0 0.00 0.07 0.02 97 1025.0
20221210065601 47 227 0.0 1.0 0.00 0.07 0.02 97 1025.0
20221210065100 47 236 0.0 1.0 0.01 0.07 0.02 97 1025.0
20221210064605 47 232 0.0 1.0 0.01 0.07 0.02 97 1024.9
20221210063558 47 232 0.0 0.0 0.01 0.07 0.02 97 1024.8
20221210063102 47 232 0.0 0.0 0.01 0.07 0.02 97 1024.8
20221210062558 47 221 0.0 1.0 0.01 0.07 0.02 97 1024.8
20221210062100 47 232 0.0 2.0 0.01 0.07 0.02 97 1024.8
20221210061615 47 229 0.0 2.0 0.01 0.07 0.02 97 1024.8
20221210061056 48 233 0.0 0.0 0.02 0.07 0.02 97 1024.9
20221210060557 48 233 0.0 0.0 0.02 0.07 0.02 97 1024.9
20221210060056 48 233 0.0 0.0 0.02 0.08 0.02 97 1024.8
20221210055555 48 233 0.0 0.0 0.02 0.08 0.02 97 1024.9
20221210055054 48 233 0.0 0.0 0.01 0.07 0.01 97 1024.8
20221210054602 48 233 0.0 0.0 0.01 0.07 0.01 97 1024.9
20221210053555 48 154 0.0 2.0 0.01 0.07 0.01 97 1024.9
20221210053103 48 101 0.0 2.0 0.01 0.07 0.01 97 1024.8
20221210052554 48 210 0.0 0.0 0.01 0.07 0.01 97 1024.9
20221210052054 48 210 0.0 0.0 0.01 0.07 0.01 97 1025.1
20221210051559 48 210 0.0 0.0 0.01 0.07 0.01 97 1025.0
20221210051056 48 210 0.0 0.0 0.01 0.07 0.01 97 1024.9
20221210050552 48 210 0.0 0.0 0.00 0.06 0.00 97 1024.9
20221210050102 48 210 0.0 0.0 0.00 0.07 0.06 97 1025.0
20221210045551 48 163 0.0 0.0 0.00 0.07 0.06 97 1025.0
20221210045052 48 138 0.0 0.0 0.00 0.07 0.06 97 1024.9
20221210044552 48 138 0.0 0.0 0.00 0.07 0.06 97 1024.9
20221210043551 48 138 0.0 1.0 0.00 0.07 0.06 97 1025.0
20221210043055 48 236 0.0 0.0 0.00 0.07 0.06 97 1025.2
20221210042555 48 258 0.0 1.0 0.00 0.07 0.06 97 1025.2
20221210042051 48 258 0.0 1.0 0.00 0.07 0.06 97 1025.1
20221210041554 48 114 0.0 0.0 0.00 0.07 0.06 97 1025.0
20221210041050 48 114 0.0 0.0 0.00 0.07 0.06 97 1025.0
20221210040551 48 114 0.0 0.0 0.00 0.07 0.06 97 1025.1
20221210040049 48 114 0.0 0.0 0.00 0.09 0.06 97 1025.1
20221210035549 48 114 0.0 0.0 0.00 0.09 0.06 97 1025.0
20221210035049 48 114 0.0 0.0 0.00 0.09 0.06 97 1025.0
20221210034549 48 114 0.0 0.0 0.00 0.09 0.06 97 1024.9
20221210033550 48 112 0.0 0.0 0.00 0.09 0.06 97 1025.1
20221210033051 48 112 0.0 0.0 0.00 0.09 0.06 97 1024.9
20221210032550 48 112 0.0 0.0 0.00 0.09 0.06 97 1024.9
20221210032049 48 112 0.0 1.0 0.00 0.09 0.06 97 1024.9
20221210031600 48 112 0.0 1.0 0.00 0.09 0.06 97 1024.8
20221210031049 48 108 0.0 1.0 0.00 0.09 0.06 97 1024.6
20221210030549 48 108 0.0 0.0 0.00 0.09 0.06 97 1024.7
20221210030050 48 108 0.0 0.0 0.00 0.12 0.06 97 1024.9
20221210025551 48 108 0.0 0.0 0.00 0.12 0.06 97 1024.9
20221210025052 48 108 0.0 0.0 0.00 0.12 0.06 97 1024.8
20221210024548 48 108 0.0 0.0 0.00 0.12 0.06 97 1024.8
20221210023549 48 108 0.0 0.0 0.00 0.12 0.06 97 1024.6
20221210023107 48 108 0.0 0.0 0.00 0.12 0.06 97 1024.6
20221210022549 48 108 0.0 0.0 0.00 0.12 0.06 97 1024.7
20221210022051 48 108 0.0 0.0 0.00 0.12 0.06 97 1024.7
20221210021557 48 108 0.0 2.0 0.00 0.12 0.06 97 1024.7
20221210021051 48 108 0.0 2.0 0.00 0.12 0.06 97 1024.7
20221210020548 48 108 0.0 0.0 0.00 0.12 0.06 97 1024.7
20221210020048 48 108 0.0 0.0 0.00 0.15 0.06 97 1024.6
20221210015548 48 108 0.0 0.0 0.00 0.15 0.06 97 1024.7
20221210015050 48 108 0.0 0.0 0.00 0.15 0.06 97 1024.6
20221210014553 48 108 0.0 0.0 0.01 0.15 0.06 97 1024.5
20221210013548 48 108 0.0 0.0 0.01 0.15 0.06 97 1024.6
20221210013051 48 108 0.0 0.0 0.01 0.15 0.06 97 1024.6
20221210012547 48 108 0.0 0.0 0.01 0.15 0.06 97 1024.5
20221210012047 48 108 0.0 0.0 0.01 0.15 0.06 97 1024.4
20221210011547 48 108 0.0 0.0 0.01 0.15 0.06 97 1024.5
20221210011047 48 108 0.0 0.0 0.02 0.15 0.06 97 1024.7
20221210010549 48 108 0.0 0.0 0.02 0.15 0.06 97 1024.4
20221210010047 48 108 0.0 0.0 0.02 0.24 0.06 97 1024.4
20221210005547 48 108 0.0 0.0 0.02 0.24 0.06 97 1024.6
20221210005047 48 108 0.0 1.0 0.02 0.24 0.06 97 1024.5
20221210004547 48 108 0.0 1.0 0.01 0.23 0.05 97 1024.3
20221210003547 48 92 0.0 0.0 0.01 0.23 0.05 97 1024.1
20221210003048 48 113 0.0 2.0 0.01 0.23 0.05 97 1024.2
20221210002544 48 96 0.0 2.0 0.01 0.23 0.05 97 1024.1
20221210002046 48 100 0.0 0.0 0.02 0.23 0.05 97 1024.5
20221210001546 48 100 0.0 0.0 0.02 0.23 0.05 97 1024.3
20221210001044 48 100 0.0 2.0 0.02 0.23 0.05 97 1024.1
20221210000546 48 102 0.0 3.0 0.01 0.22 0.04 97 1024.2
20221210000046 48 169 1.0 3.0 0.01 0.25 0.04 97 1023.9
20221209235544 48 103 1.0 3.0 0.01 0.25 0.04 97 1023.9
20221209235041 48 100 1.0 4.0 0.01 0.25 0.04 96 1023.9
20221209234543 48 108 0.0 4.0 0.01 0.25 0.04 96 1023.6
20221209233541 49 97 0.0 1.0 0.02 0.25 0.04 97 1023.6
20221209233041 49 124 0.0 0.0 0.02 0.25 0.04 96 1023.7
20221209232541 49 127 0.0 1.0 0.02 0.25 0.04 96 1023.6
20221209232043 49 94 0.0 0.0 0.02 0.25 0.04 96 1023.5
20221209231555 49 100 0.0 2.0 0.01 0.24 0.03 96 1023.5
20221209231040 49 100 1.0 2.0 0.01 0.24 0.03 96 1023.5
20221209230541 49 99 0.0 2.0 0.01 0.24 0.03 96 1023.5
20221209230047 49 103 0.0 2.0 0.01 0.26 0.03 96 1023.4
20221209225539 49 108 0.0 1.0 0.01 0.26 0.03 96 1023.3
20221209225039 49 96 0.0 0.0 0.01 0.26 0.03 96 1023.3
20221209224540 49 96 0.0 0.0 0.01 0.26 0.03 96 1023.4
20221209223539 49 96 0.0 0.0 0.00 0.25 0.02 96 1023.3
20221209223044 49 96 0.0 1.0 0.00 0.25 0.02 96 1023.3
20221209222538 50 96 0.0 1.0 0.00 0.25 0.02 96 1023.2
20221209222040 50 96 0.0 0.0 0.00 0.25 0.02 95 1023.2
20221209221537 50 96 0.0 0.0 0.00 0.25 0.02 95 1023.2
20221209221036 50 96 0.0 0.0 0.00 0.25 0.02 95 1023.2
20221209220539 50 96 0.0 0.0 0.00 0.25 0.02 95 1023.1
20221209220104 50 96 0.0 2.0 0.00 0.34 0.02 94 1022.9
20221209215536 50 96 0.0 3.0 0.00 0.34 0.02 94 1023.0
20221209215036 50 85 0.0 3.0 0.00 0.34 0.02 94 1023.0
20221209214549 50 103 0.0 1.0 0.00 0.34 0.02 94 1022.9
20221209213536 50 98 0.0 2.0 0.00 0.34 0.02 94 1023.0
20221209213043 50 99 0.0 1.0 0.00 0.34 0.02 94 1022.9
20221209212536 51 99 0.0 1.0 0.00 0.34 0.02 94 1022.8
20221209212036 50 87 0.0 1.0 0.00 0.34 0.02 94 1022.8
20221209211543 50 86 0.0 1.0 0.00 0.34 0.02 94 1023.0
20221209211036 50 86 0.0 0.0 0.00 0.34 0.02 94 1023.0
20221209210538 50 86 0.0 0.0 0.00 0.34 0.02 94 1023.0
20221209210035 50 86 0.0 0.0 0.00 0.36 0.02 94 1023.1
20221209205536 50 86 0.0 0.0 0.00 0.36 0.02 94 1023.0
20221209205035 50 86 0.0 0.0 0.00 0.36 0.02 94 1023.0
20221209204556 50 86 0.0 2.0 0.00 0.36 0.02 94 1023.0
20221209203535 50 78 0.0 2.0 0.00 0.36 0.02 94 1022.8
20221209203035 51 100 0.0 2.0 0.00 0.36 0.02 94 1022.8
20221209202534 51 70 0.0 2.0 0.00 0.36 0.02 94 1022.8
20221209202036 51 47 0.0 2.0 0.00 0.36 0.02 94 1022.8
20221209201535 51 71 0.0 3.0 0.00 0.36 0.02 93 1023.0
20221209201034 51 13 1.0 3.0 0.00 0.36 0.02 94 1022.8
20221209200533 51 105 1.0 3.0 0.00 0.36 0.02 94 1022.7
20221209200033 51 102 0.0 1.0 0.00 0.36 0.02 94 1022.9
20221209195532 51 103 0.0 2.0 0.00 0.36 0.02 94 1023.0
20221209195035 51 86 0.0 2.0 0.00 0.36 0.02 94 1022.9
20221209194533 50 109 0.0 2.0 0.00 0.36 0.02 95 1022.8
20221209193534 50 96 1.0 4.0 0.00 0.36 0.02 95 1022.7
20221209193034 50 65 1.0 4.0 0.00 0.36 0.02 95 1022.6
20221209192533 50 105 0.0 5.0 0.00 0.36 0.02 95 1022.9
20221209192033 50 60 1.0 5.0 0.00 0.36 0.02 95 1022.8
20221209191540 51 86 0.0 4.0 0.00 0.36 0.02 95 1023.0
20221209191041 51 97 0.0 4.0 0.00 0.36 0.02 95 1023.0
20221209190604 51 113 0.0 3.0 0.00 0.36 0.02 94 1023.1
20221209190553 51 111 0.0 3.0 0.00 0.36 0.02 94 1023.1
20221209190035 51 100 0.0 3.0 0.00 0.38 0.02 94 1023.2
20221209185534 51 110 0.0 3.0 0.00 0.38 0.02 94 1023.2
20221209185030 51 84 0.0 2.0 0.00 0.38 0.02 95 1023.2
20221209184530 51 97 0.0 3.0 0.00 0.38 0.02 95 1023.2
20221209183529 51 77 1.0 4.0 0.00 0.38 0.02 95 1022.9
20221209183031 51 79 1.0 4.0 0.00 0.38 0.02 96 1022.8
20221209182529 51 104 0.0 4.0 0.00 0.38 0.02 95 1023.2
20221209182029 51 91 1.0 5.0 0.00 0.38 0.02 95 1023.3
20221209181529 51 104 1.0 5.0 0.00 0.38 0.02 95 1023.5
20221209181031 51 96 0.0 4.0 0.00 0.38 0.02 95 1023.6
20221209180529 51 90 0.0 4.0 0.00 0.38 0.02 95 1023.6
20221209180031 51 98 0.0 3.0 0.00 0.38 0.02 95 1023.6
20221209175535 51 113 0.0 3.0 0.00 0.38 0.02 95 1023.5
20221209175027 51 94 0.0 3.0 0.00 0.38 0.02 96 1023.6
20221209174535 51 70 1.0 4.0 0.00 0.38 0.02 95 1023.7
20221209173531 51 103 0.0 4.0 0.00 0.38 0.02 96 1023.5
20221209173029 51 80 0.0 4.0 0.00 0.38 0.02 96 1023.6
20221209172528 51 28 1.0 4.0 0.00 0.38 0.02 96 1023.8
20221209172028 51 104 0.0 2.0 0.00 0.38 0.02 96 1023.6
20221209171546 51 87 0.0 2.0 0.00 0.38 0.02 96 1023.9
20221209171026 51 127 0.0 2.0 0.00 0.38 0.02 96 1024.0
20221209170527 51 101 0.0 1.0 0.00 0.38 0.02 96 1023.9
20221209170044 51 101 0.0 1.0 0.00 0.38 0.02 96 1024.1
20221209165527 51 101 0.0 2.0 0.00 0.38 0.02 96 1024.1
20221209165028 51 106 0.0 2.0 0.00 0.38 0.02 96 1024.2
20221209164545 50 99 0.0 2.0 0.01 0.38 0.02 96 1024.2
20221209163536 51 100 0.0 4.0 0.01 0.38 0.02 96 1024.3
20221209163034 51 95 0.0 0.0 0.01 0.38 0.02 96 1024.2
20221209162532 51 72 0.0 1.0 0.01 0.38 0.02 96 1024.5
20221209162033 50 72 0.0 4.0 0.01 0.38 0.02 96 1024.6
20221209161532 50 88 0.0 2.0 0.01 0.38 0.02 96 1024.7
20221209161035 51 85 0.0 3.0 0.01 0.38 0.02 96 1024.8
20221209160531 50 91 0.0 3.0 0.01 0.38 0.02 96 1024.6
20221209160032 50 72 1.0 2.0 0.01 0.38 0.02 96 1024.7
20221209155531 50 100 0.0 2.0 0.01 0.38 0.02 96 1024.9
20221209155032 50 97 0.0 0.0 0.01 0.38 0.02 96 1025.0
20221209154531 50 96 0.0 0.0 0.01 0.38 0.02 96 1025.1
20221209153525 50 65 0.0 2.0 0.00 0.37 0.01 96 1025.0
20221209153025 50 70 0.0 2.0 0.00 0.37 0.01 96 1025.0
20221209152524 50 26 0.0 2.0 0.00 0.37 0.01 96 1024.8
20221209152025 50 102 0.0 3.0 0.00 0.37 0.01 96 1024.8
20221209151529 50 70 0.0 3.0 0.00 0.37 0.01 96 1024.6
20221209151023 50 70 0.0 3.0 0.00 0.37 0.01 96 1024.4
20221209150524 50 103 0.0 3.0 0.00 0.37 0.01 96 1024.5
20221209150024 50 89 0.0 3.0 0.00 0.37 0.01 96 1024.4
20221209145523 50 77 0.0 1.0 0.00 0.37 0.01 96 1024.5
20221209145026 50 101 0.0 2.0 0.00 0.37 0.01 96 1024.6
20221209144522 50 90 0.0 4.0 0.00 0.37 0.01 96 1024.7
20221209144022 50 109 0.0 2.0 0.00 0.37 0.01 96 1024.8
20221209143521 0 0.0 0.0 0.00 0.37 0.01 1024.8
20221209143019 0 0.0 0.0 0.00 0.37 0.01 1024.7
20221209142517 0 0.0 0.0 0.00 0.37 0.01 1024.8
20221209142017 0 0.0 0.0 0.00 0.37 0.01 1024.8
20221209141514 0 0.0 0.0 0.00 0.37 0.01 1024.8
20221209140513 0 0.0 0.0 0.00 0.37 0.01 1024.8
20221209140012 0 0.0 0.0 0.00 0.37 0.01 1024.9
20221209135511 0 0.0 0.0 0.00 0.37 0.01 1024.7
20221209135010 0 0.0 0.0 0.00 0.37 0.01 1024.5
20221209134507 0 0.0 0.0 0.00 0.37 0.01 1024.7
20221209134006 0 0.0 0.0 0.00 0.37 0.01 1024.8
20221209133506 0 0.0 0.0 0.00 0.37 0.01 1024.8
20221209133002 0 0.0 0.0 0.00 0.37 0.01 1024.8
20221209132502 0 0.0 0.0 0.00 0.37 0.01 1024.3
20221209132001 0 0.0 0.0 0.00 0.37 0.01 1024.2
20221209131602 0 0.0 0.0 0.00 0.37 0.01 1024.2
20221209130557 0 0.0 0.0 0.00 0.37 0.01 1024.5
20221209130056 0 0.0 0.0 0.00 0.37 0.01 1024.7
20221209125556 0 0.0 0.0 0.00 0.37 0.01 1024.4
20221209125055 0 0.0 0.0 0.00 0.37 0.01 1024.0
20221209124600 0 0.0 0.0 0.00 0.37 0.01 1024.4
20221209124054 0 0.0 0.0 0.00 0.37 0.01 1024.5
20221209123548 0 0.0 0.0 0.00 0.37 0.01 1024.1
20221209123048 0 0.0 0.0 0.00 0.37 0.01 1024.1
20221209122548 0 0.0 0.0 0.00 0.37 0.01 1023.9
20221209122044 0 0.0 0.0 0.00 0.37 0.01 1024.1
20221209121543 0 0.0 0.0 0.00 0.37 0.01 1024.1
20221209120541 0 0.0 0.0 0.00 0.37 0.01 1024.4
20221209120040 0 0.0 0.0 0.00 0.37 0.01 1024.3
20221209115539 0 0.0 0.0 0.00 0.37 0.01 1024.1
20221209115036 0 0.0 0.0 0.00 0.37 0.01 1024.0
20221209114536 0 0.0 0.0 0.00 0.37 0.01 1023.9
20221209114035 0 0.0 0.0 0.00 0.37 0.01 1023.8
20221209113533 0 0.0 0.0 0.00 0.37 0.01 1023.8
20221209113035 0 0.0 0.0 0.00 0.37 0.01 1023.7
20221209112533 0 0.0 0.0 0.00 0.37 0.01 1023.6
20221209112028 0 0.0 0.0 0.00 0.37 0.01 1023.5
20221209111527 0 0.0 0.0 0.00 0.37 0.01 1023.5
20221209110525 0 0.0 0.0 0.00 0.37 0.01 1023.4
20221209110024 0 0.0 0.0 0.00 0.37 0.01 1023.4
20221209105522 0 0.0 0.0 0.00 0.37 0.01 1023.8
20221209105021 0 0.0 0.0 0.00 0.37 0.01 1023.9
20221209104520 0 0.0 0.0 0.00 0.37 0.01 1023.7
20221209104018 0 0.0 0.0 0.00 0.37 0.01 1023.6
20221209103519 0 0.0 0.0 0.00 0.37 0.01 1023.4
20221209103019 0 0.0 0.0 0.00 0.37 0.01 1023.4
20221209102513 0 0.0 0.0 0.00 0.37 0.01 1023.3
20221209102013 0 0.0 0.0 0.00 0.37 0.01 1023.2
20221209101511 0 0.0 0.0 0.00 0.37 0.01 1023.2
20221209100510 0 0.0 0.0 0.00 0.37 0.01 1022.9
20221209100013 0 0.0 0.0 0.00 0.37 0.01 1022.7
20221209095511 0 0.0 0.0 0.00 0.37 0.01 1022.8
20221209095006 0 0.0 0.0 0.00 0.37 0.01 1022.6
20221209094508 0 0.0 0.0 0.00 0.37 0.01 1022.7
20221209094002 0 0.0 0.0 0.00 0.37 0.01 1023.0
20221209093502 0 0.0 0.0 0.00 0.37 0.01 1022.9
20221209093103 0 0.0 0.0 0.00 0.37 0.01 1022.9
20221209092600 0 0.0 0.0 0.00 0.37 0.01 1022.7
20221209092100 0 0.0 0.0 0.00 0.37 0.01 1022.7
20221209091556 0 0.0 0.0 0.00 0.37 0.01 1022.6
20221209091155 0 0.0 0.0 0.00 0.37 0.01 1022.6
20221209090554 0 0.0 0.0 0.00 0.37 0.01 1022.7
20221209090055 0 0.0 0.0 0.00 0.37 0.01 1022.7
20221209085551 0 0.0 0.0 0.00 0.37 0.01 1022.6
20221209085050 0 0.0 0.0 0.00 0.37 0.01 1022.7
20221209084548 0 0.0 0.0 0.00 0.37 0.01 1022.6
20221209084046 0 0.0 0.0 0.00 0.37 0.01 1022.9
20221209083546 0 0.0 0.0 0.00 0.37 0.01 1022.8
20221209083044 0 0.0 0.0 0.00 0.37 0.01 1022.7
20221209082541 0 0.0 0.0 0.00 0.37 0.01 1023.0
20221209082040 0 0.0 0.0 0.00 0.37 0.01 1022.9
20221209081540 0 0.0 0.0 0.00 0.37 0.01 1022.7
20221209081138 0 0.0 0.0 0.00 0.37 0.01 1022.6
20221209080538 0 0.0 0.0 0.00 0.37 0.01 1022.6
20221209080044 0 0.0 0.0 0.00 0.37 0.01 1022.7
20221209075535 0 0.0 0.0 0.00 0.37 0.01 1022.9
20221209075034 0 0.0 0.0 0.00 0.37 0.01 1023.0